FW0394 Weather Reports


time (UTC)temp
C
wind
direction
speed
KPH
gust
KPH
rain 1hr
cm
rain 24hr
cm
rain mn
cm
humidity
%
barometer
mb
20260507114003 7 222 6.4 19.3 0.00 0.00 0.00 76 1011.8
20260507113503 7 215 4.8 14.5 0.00 0.00 0.00 75 1011.8
20260507113214 7 216 4.8 14.5 0.00 0.00 0.00 75 1011.7
20260507112503 7 229 4.8 19.3 0.00 0.00 0.00 75 1011.7
20260507112003 7 233 6.4 19.3 0.00 0.00 0.00 75 1011.8
20260507111504 7 238 8.0 20.9 0.00 0.00 0.00 74 1011.7
20260507111003 8 236 8.0 20.9 0.00 0.00 0.00 74 1011.7
20260507110503 8 231 6.4 16.1 0.00 0.00 0.00 74 1011.8
20260507110003 8 225 6.4 14.5 0.00 0.00 0.00 74 1011.8
20260507105713 8 222 6.4 14.5 0.00 0.00 0.00 74 1011.7
20260507105214 8 223 4.8 14.5 0.00 0.00 0.00 74 1011.8
20260507104504 8 232 6.4 22.5 0.00 0.00 0.00 74 1011.7
20260507104003 8 228 6.4 16.1 0.00 0.00 0.00 74 1011.7
20260507103503 8 224 6.4 14.5 0.00 0.00 0.00 74 1011.8
20260507103003 8 228 6.4 14.5 0.00 0.00 0.00 74 1011.7
20260507102503 8 222 6.4 14.5 0.00 0.00 0.00 74 1011.6
20260507102003 8 212 4.8 14.5 0.00 0.00 0.00 73 1011.7
20260507101713 8 211 4.8 14.5 0.00 0.00 0.00 73 1011.7
20260507101003 8 216 4.8 12.9 0.00 0.00 0.00 73 1011.8
20260507100503 8 211 6.4 17.7 0.00 0.00 0.00 73 1011.8
20260507100003 8 207 6.4 17.7 0.00 0.00 0.00 73 1011.8
20260507095503 8 211 6.4 14.5 0.00 0.00 0.00 73 1011.9
20260507095003 8 214 6.4 14.5 0.00 0.00 0.00 72 1011.9
20260507094503 8 214 6.4 14.5 0.00 0.00 0.00 72 1011.9
20260507094004 8 223 6.4 14.5 0.00 0.00 0.00 72 1011.9
20260507093503 8 222 6.4 14.5 0.00 0.00 0.00 72 1012.0
20260507093003 8 212 6.4 16.1 0.00 0.00 0.00 71 1012.1
20260507092504 8 219 6.4 16.1 0.00 0.00 0.00 71 1012.1
20260507092003 8 225 6.4 12.9 0.00 0.00 0.00 71 1012.2
20260507091503 8 219 6.4 14.5 0.00 0.00 0.00 71 1012.2
20260507091005 8 212 6.4 14.5 0.00 0.00 0.00 71 1012.3
20260507090503 8 213 4.8 11.3 0.00 0.00 0.00 70 1012.3
20260507090004 8 222 6.4 17.7 0.00 0.00 0.00 70 1012.4
20260507085712 8 221 6.4 17.7 0.00 0.00 0.00 69 1012.4
20260507085003 8 217 4.8 11.3 0.00 0.00 0.00 69 1012.6
20260507084504 8 220 4.8 14.5 0.00 0.00 0.00 68 1012.5
20260507084003 8 219 4.8 14.5 0.00 0.00 0.00 68 1012.6
20260507083503 8 223 4.8 16.1 0.00 0.00 0.00 67 1012.6
20260507083004 8 232 6.4 16.1 0.00 0.00 0.00 67 1012.6
20260507082714 8 226 4.8 16.1 0.00 0.00 0.00 67 1012.6
20260507082213 8 223 6.4 19.3 0.00 0.00 0.00 67 1012.8
20260507081503 8 232 8.0 19.3 0.00 0.00 0.00 66 1012.8
20260507081003 8 234 8.0 16.1 0.00 0.00 0.00 66 1012.9
20260507080503 8 231 6.4 16.1 0.00 0.00 0.00 65 1012.9
20260507080003 8 226 6.4 16.1 0.00 0.00 0.00 65 1013.1
20260507075503 8 227 6.4 17.7 0.00 0.00 0.00 64 1013.1
20260507075003 8 229 6.4 17.7 0.00 0.00 0.00 64 1013.1
20260507074503 8 226 4.8 12.9 0.00 0.00 0.00 64 1013.1
20260507074003 8 220 4.8 14.5 0.00 0.00 0.00 63 1013.2
20260507073504 8 221 4.8 14.5 0.00 0.00 0.00 63 1013.2
20260507073003 8 226 4.8 12.9 0.00 0.00 0.00 62 1013.3
20260507072503 8 227 4.8 12.9 0.00 0.00 0.00 62 1013.3
20260507072003 8 222 4.8 11.3 0.00 0.00 0.00 62 1013.5
20260507071504 8 214 4.8 11.3 0.00 0.00 0.00 62 1013.5
20260507071003 8 220 3.2 9.7 0.00 0.00 0.00 62 1013.6
20260507070504 8 227 3.2 8.0 0.00 0.00 0.00 62 1013.6
20260507070007 7 227 3.2 8.0 0.00 0.00 0.00 63 1013.7
20260507065503 7 236 3.2 6.4 0.00 0.00 0.00 63 1013.7
20260507065003 7 245 3.2 6.4 0.00 0.00 0.00 63 1013.8
20260507064503 7 250 3.2 6.4 0.00 0.00 0.00 64 1013.8
20260507064003 7 252 3.2 4.8 0.00 0.00 0.00 65 1013.9
20260507063503 7 253 1.6 6.4 0.00 0.00 0.00 66 1014.0
20260507063003 7 254 1.6 6.4 0.00 0.00 0.00 65 1014.0
20260507062503 7 254 1.6 3.2 0.00 0.00 0.00 64 1014.0
20260507062003 7 254 1.6 3.2 0.00 0.00 0.00 62 1014.1
20260507061503 7 254 0.0 3.2 0.00 0.00 0.00 61 1014.1
20260507061003 7 254 0.0 1.6 0.00 0.00 0.00 60 1014.2
20260507060503 7 254 0.0 3.2 0.00 0.00 0.00 59 1014.2
20260507060003 7 254 0.0 3.2 0.00 0.00 0.00 59 1014.3
20260507055503 7 254 0.0 3.2 0.00 0.00 0.00 58 1014.2
20260507055003 7 0 0.0 0.0 0.00 0.00 0.00 58 1014.3
20260507054503 7 0 0.0 0.0 0.00 0.00 0.00 57 1014.4
20260507054003 7 254 0.0 1.6 0.00 0.00 0.00 57 1014.3
20260507053503 7 254 0.0 4.8 0.00 0.00 0.00 57 1014.4
20260507053004 7 254 1.6 4.8 0.00 0.00 0.00 56 1014.4
20260507052503 7 254 1.6 3.2 0.00 0.00 0.00 57 1014.3
20260507052003 8 257 1.6 4.8 0.00 0.00 0.00 55 1014.4
20260507051713 8 257 1.6 4.8 0.00 0.00 0.00 57 1014.3
20260507051214 8 259 0.0 3.2 0.00 0.00 0.00 56 1014.4
20260507050503 8 259 0.0 4.8 0.00 0.00 0.00 56 1014.4
20260507050005 8 260 1.6 3.2 0.00 0.00 0.00 56 1014.4
20260507045713 8 260 1.6 3.2 0.00 0.00 0.00 54 1014.4
20260507045003 8 260 0.0 1.6 0.00 0.00 0.00 53 1014.4
20260507044503 8 260 0.0 3.2 0.00 0.00 0.00 53 1014.4
20260507044003 8 261 0.0 3.2 0.00 0.00 0.00 53 1014.5
20260507043503 8 261 0.0 3.2 0.00 0.00 0.00 50 1014.5
20260507043003 8 0 0.0 0.0 0.00 0.00 0.00 53 1014.6
20260507042503 8 0 0.0 0.0 0.00 0.00 0.00 55 1014.6
20260507042003 8 0 0.0 1.6 0.00 0.00 0.00 54 1014.7
20260507041503 8 261 0.0 1.6 0.00 0.00 0.00 52 1014.7
20260507041004 8 261 0.0 1.6 0.00 0.00 0.00 52 1014.7
20260507040503 8 0 0.0 0.0 0.00 0.00 0.00 53 1014.7
20260507040003 8 0 0.0 0.0 0.00 0.00 0.00 55 1014.7
20260507035503 8 261 0.0 3.2 0.00 0.00 0.00 53 1014.8
20260507035003 8 261 0.0 3.2 0.00 0.00 0.00 52 1014.8
20260507034503 8 0 0.0 0.0 0.00 0.00 0.00 54 1014.9
20260507034003 8 0 0.0 0.0 0.00 0.00 0.00 52 1014.9
20260507033712 8 261 0.0 1.6 0.00 0.00 0.00 51 1014.9
20260507033003 8 261 0.0 1.6 0.00 0.00 0.00 51 1015.0
20260507032504 8 261 1.6 4.8 0.00 0.00 0.00 51 1015.0
20260507032003 9 261 1.6 4.8 0.00 0.00 0.00 49 1015.1
20260507031503 9 261 0.0 4.8 0.00 0.00 0.00 47 1015.0
20260507031003 9 261 0.0 1.6 0.00 0.00 0.00 46 1015.0
20260507030503 9 261 0.0 1.6 0.00 0.00 0.00 46 1015.0
20260507030213 10 261 0.0 1.6 0.00 0.00 0.00 48 1015.0
20260507025503 10 0 0.0 0.0 0.00 0.00 0.00 45 1015.0
20260507025003 10 0 0.0 0.0 0.00 0.00 0.00 44 1014.9
20260507024503 10 261 0.0 1.6 0.00 0.00 0.00 43 1014.9
20260507024213 10 261 0.0 1.6 0.00 0.00 0.00 44 1014.9
20260507023503 10 261 0.0 1.6 0.00 0.00 0.00 43 1014.9
20260507023003 10 261 0.0 1.6 0.00 0.00 0.00 43 1014.8
20260507022503 10 261 0.0 1.6 0.00 0.00 0.00 44 1014.7
20260507022003 10 261 0.0 1.6 0.00 0.00 0.00 41 1014.8
20260507021503 10 0 0.0 1.6 0.00 0.00 0.00 42 1014.7
20260507021003 11 0 0.0 0.0 0.00 0.00 0.00 41 1014.7
20260507020714 11 0 0.0 0.0 0.00 0.00 0.00 40 1014.7
20260507020003 11 0 0.0 0.0 0.00 0.00 0.00 43 1014.6
20260507015503 11 0 0.0 0.0 0.00 0.00 0.00 39 1014.7
20260507015003 11 0 0.0 0.0 0.00 0.00 0.00 38 1014.7
20260507014714 12 0 0.0 0.0 0.00 0.00 0.00 38 1014.7
20260507014212 12 0 0.0 0.0 0.00 0.00 0.00 37 1014.7
20260507013503 12 0 0.0 0.0 0.00 0.00 0.00 38 1014.5
20260507013003 12 0 0.0 0.0 0.00 0.00 0.00 35 1014.5
20260507012503 12 261 0.0 3.2 0.00 0.00 0.00 34 1014.6
20260507012003 13 261 0.0 3.2 0.00 0.00 0.00 36 1014.6
20260507011503 13 0 0.0 0.0 0.00 0.00 0.00 33 1014.6
20260507010503 13 261 0.0 3.2 0.00 0.00 0.00 31 1014.6
20260507010004 14 261 0.0 3.2 0.00 0.00 0.00 31 1014.6
20260507005503 14 261 0.0 3.2 0.00 0.00 0.00 30 1014.6
20260507005003 14 259 0.0 4.8 0.00 0.00 0.00 30 1014.6
20260507004003 15 256 3.2 9.7 0.00 0.00 0.00 28 1014.5
20260507003503 15 270 1.6 9.7 0.00 0.00 0.00 30 1014.6
20260507003003 15 293 3.2 9.7 0.00 0.00 0.00 29 1014.7
20260507002503 15 312 1.6 4.8 0.00 0.00 0.00 28 1014.8
20260507002003 15 301 1.6 4.8 0.00 0.00 0.00 28 1014.7
20260507001503 15 296 3.2 11.3 0.00 0.00 0.00 30 1014.7
20260507001003 15 290 3.2 11.3 0.00 0.00 0.00 27 1014.7
20260507000713 15 288 3.2 8.0 0.00 0.00 0.00 30 1014.8
20260507000004 15 263 1.6 11.3 0.00 0.00 0.00 27 1014.8
20260506235503 15 278 3.2 14.5 0.00 0.00 0.00 29 1014.9
20260506235003 15 281 3.2 14.5 0.00 0.00 0.00 28 1015.0
20260506234503 15 267 1.6 6.4 0.00 0.00 0.00 28 1015.1
20260506234003 15 262 3.2 11.3 0.00 0.00 0.00 27 1015.1
20260506233503 15 261 4.8 12.9 0.00 0.00 0.00 28 1015.2
20260506233003 15 259 6.4 17.7 0.00 0.00 0.00 26 1015.2
20260506232503 15 257 6.4 17.7 0.00 0.00 0.00 27 1015.2
20260506232005 15 265 4.8 17.7 0.00 0.00 0.00 27 1015.2
20260506231503 15 253 6.4 14.5 0.00 0.00 0.00 27 1015.2
20260506231003 16 240 6.4 14.5 0.00 0.00 0.00 26 1015.2
20260506230503 16 241 6.4 19.3 0.00 0.00 0.00 27 1015.4
20260506230004 16 249 6.4 19.3 0.00 0.00 0.00 26 1015.4
20260506225503 16 251 4.8 11.3 0.00 0.00 0.00 29 1015.5
20260506225004 16 278 4.8 14.5 0.00 0.00 0.00 28 1015.6
20260506224503 16 291 4.8 19.3 0.00 0.00 0.00 29 1015.6
20260506224003 16 270 4.8 19.3 0.00 0.00 0.00 28 1015.5
20260506223712 16 266 4.8 19.3 0.00 0.00 0.00 26 1015.5
20260506223003 15 248 3.2 9.7 0.00 0.00 0.00 29 1015.7
20260506222503 16 247 3.2 8.0 0.00 0.00 0.00 28 1015.7
20260506222003 16 265 3.2 11.3 0.00 0.00 0.00 29 1015.8
20260506221504 16 296 3.2 11.3 0.00 0.00 0.00 33 1015.8
20260506221003 16 279 3.2 12.9 0.00 0.00 0.00 33 1015.9
20260506220503 16 255 4.8 12.9 0.00 0.00 0.00 27 1016.0
20260506220003 16 273 4.8 16.1 0.00 0.00 0.00 32 1016.0
20260506215503 16 269 8.0 24.1 0.00 0.00 0.00 27 1016.0
20260506215005 16 263 9.7 24.1 0.00 0.00 0.00 26 1016.1
20260506214503 16 274 6.4 19.3 0.00 0.00 0.00 28 1016.2
20260506214003 16 284 3.2 12.9 0.00 0.00 0.00 34 1016.0
20260506213714 16 276 4.8 19.3 0.00 0.00 0.00 31 1016.1
20260506213003 16 291 6.4 19.3 0.00 0.00 0.00 28 1016.2
20260506212503 16 284 4.8 17.7 0.00 0.00 0.00 32 1016.4
20260506212003 16 271 6.4 14.5 0.00 0.00 0.00 29 1016.2
20260506211503 16 288 6.4 17.7 0.00 0.00 0.00 31 1016.3
20260506211213 16 283 6.4 17.7 0.00 0.00 0.00 30 1016.3
20260506210503 16 315 4.8 16.1 0.00 0.00 0.00 31 1016.4
20260506210003 15 285 6.4 19.3 0.00 0.00 0.00 29 1016.6
20260506205503 15 263 4.8 19.3 0.00 0.00 0.00 33 1016.5
20260506205003 15 305 3.2 8.0 0.00 0.00 0.00 38 1016.6
20260506204503 15 286 3.2 11.3 0.00 0.00 0.00 30 1016.7
20260506204003 15 303 4.8 11.3 0.00 0.00 0.00 29 1016.7
20260506203503 15 331 4.8 17.7 0.00 0.00 0.00 32 1016.7
20260506203213 15 331 4.8 17.7 0.00 0.00 0.00 33 1016.7
20260506202503 16 273 6.4 17.7 0.00 0.00 0.00 34 1016.9
20260506202003 15 279 6.4 17.7 0.00 0.00 0.00 31 1016.9
20260506201503 15 298 4.8 17.7 0.00 0.00 0.00 30 1017.0
20260506201003 15 265 4.8 17.7 0.00 0.00 0.00 32 1017.0
20260506200503 16 253 8.0 19.3 0.00 0.00 0.00 29 1017.1
20260506200003 16 254 9.7 19.3 0.00 0.00 0.00 30 1017.1
20260506195713 16 255 9.7 25.7 0.00 0.00 0.00 32 1017.1
20260506195003 16 255 8.0 25.7 0.00 0.00 0.00 29 1017.2
20260506194504 16 269 6.4 19.3 0.00 0.00 0.00 33 1017.2
20260506194003 15 296 6.4 27.4 0.00 0.00 0.00 40 1017.3
20260506193503 15 262 6.4 27.4 0.00 0.00 0.00 31 1017.3
20260506193003 15 254 6.4 25.7 0.00 0.00 0.00 34 1017.2
20260506192503 15 265 6.4 17.7 0.00 0.00 0.00 35 1017.4
20260506192003 15 256 8.0 17.7 0.00 0.00 0.00 32 1017.3
20260506191503 15 254 8.0 19.3 0.00 0.00 0.00 34 1017.3
20260506191214 15 257 8.0 19.3 0.00 0.00 0.00 36 1017.2
20260506190503 15 288 8.0 22.5 0.00 0.00 0.00 36 1017.3
20260506190003 15 298 8.0 22.5 0.00 0.00 0.00 33 1017.5
20260506185503 15 300 6.4 19.3 0.00 0.00 0.00 34 1017.3
20260506185003 14 288 6.4 19.3 0.00 0.00 0.00 36 1017.6
20260506184504 15 260 8.0 24.1 0.00 0.00 0.00 32 1017.6
20260506184214 15 258 9.7 24.1 0.00 0.00 0.00 34 1017.7
20260506183503 15 264 9.7 25.7 0.00 0.00 0.00 36 1017.7
20260506183004 15 263 8.0 24.1 0.00 0.00 0.00 35 1017.7
20260506182503 14 281 6.4 22.5 0.00 0.00 0.00 35 1017.8
20260506182003 14 300 6.4 22.5 0.00 0.00 0.00 35 1017.8
20260506181503 14 301 4.8 17.7 0.00 0.00 0.00 34 1017.8
20260506181214 14 300 3.2 11.3 0.00 0.00 0.00 33 1017.9
20260506180503 13 294 3.2 12.9 0.00 0.00 0.00 36 1018.0
20260506180214 13 287 4.8 12.9 0.00 0.00 0.00 38 1018.0
20260506175503 13 264 8.0 19.3 0.00 0.00 0.00 36 1018.1
20260506175003 13 258 6.4 19.3 0.00 0.00 0.00 38 1018.1
20260506174504 13 246 4.8 12.9 0.00 0.00 0.00 38 1018.3
20260506174003 13 244 4.8 12.9 0.00 0.00 0.00 36 1018.3
20260506173503 13 261 4.8 12.9 0.00 0.00 0.00 38 1018.3
20260506173003 13 286 6.4 14.5 0.00 0.00 0.00 37 1018.4
20260506172503 13 269 6.4 16.1 0.00 0.00 0.00 35 1018.4
20260506172003 13 257 6.4 27.4 0.00 0.00 0.00 36 1018.4
20260506171503 13 276 6.4 27.4 0.00 0.00 0.00 35 1018.5
20260506171004 13 278 4.8 12.9 0.00 0.00 0.00 38 1018.5
20260506170715 13 269 6.4 14.5 0.00 0.00 0.00 36 1018.5
20260506170213 12 284 6.4 14.5 0.00 0.00 0.00 37 1018.6
20260506165503 12 295 6.4 22.5 0.00 0.00 0.00 38 1018.6
20260506165003 12 293 4.8 22.5 0.00 0.00 0.00 45 1018.7
20260506164503 12 317 3.2 12.9 0.00 0.00 0.00 38 1018.7
20260506164003 12 284 4.8 14.5 0.00 0.00 0.00 38 1018.6
20260506163503 12 301 4.8 16.1 0.00 0.00 0.00 36 1018.7
20260506163213 12 319 3.2 16.1 0.00 0.00 0.00 45 1018.7
20260506162503 11 264 4.8 14.5 0.00 0.00 0.00 39 1018.7
20260506162003 11 255 6.4 16.1 0.00 0.00 0.00 39 1018.8
20260506161503 11 261 6.4 16.1 0.00 0.00 0.00 37 1018.8
20260506161213 11 268 4.8 16.1 0.00 0.00 0.00 36 1018.8
20260506160503 11 308 4.8 17.7 0.00 0.00 0.00 41 1018.8
20260506160003 11 322 4.8 17.7 0.00 0.00 0.00 43 1018.7
20260506155503 11 286 6.4 22.5 0.00 0.00 0.00 39 1018.7
20260506155003 11 288 6.4 22.5 0.00 0.00 0.00 40 1018.6
20260506154503 11 313 4.8 14.5 0.00 0.00 0.00 40 1018.6
20260506154003 11 310 3.2 11.3 0.00 0.00 0.00 40 1018.6
20260506153503 11 311 3.2 14.5 0.00 0.00 0.00 40 1018.7
20260506153003 11 302 3.2 14.5 0.00 0.00 0.00 42 1018.8
20260506152503 11 280 3.2 14.5 0.00 0.00 0.00 44 1018.7
20260506152003 10 286 3.2 14.5 0.00 0.00 0.00 43 1018.7
20260506151503 10 320 3.2 12.9 0.00 0.00 0.00 39 1018.6
20260506151003 10 332 3.2 9.7 0.00 0.00 0.00 42 1018.6
20260506150504 10 309 4.8 16.1 0.00 0.00 0.00 42 1018.6
20260506150003 10 301 4.8 16.1 0.00 0.00 0.00 44 1018.7
20260506145503 10 310 3.2 11.3 0.00 0.00 0.00 42 1018.7
20260506145212 10 328 3.2 9.7 0.00 0.00 0.00 47 1018.7
20260506144503 9 333 3.2 9.7 0.00 0.00 0.00 44 1018.7
20260506144003 9 331 3.2 6.4 0.00 0.00 0.00 47 1018.7
20260506143713 9 299 3.2 9.7 0.00 0.00 0.00 46 1018.8
20260506143003 9 259 3.2 11.3 0.00 0.00 0.00 46 1018.8
20260506142503 9 273 3.2 11.3 0.00 0.00 0.00 47 1018.6
20260506142003 8 29 3.2 8.0 0.00 0.00 0.00 49 1018.6
20260506141503 8 29 3.2 8.0 0.00 0.00 0.00 51 1018.5
20260506141003 8 334 3.2 8.0 0.00 0.00 0.00 46 1018.6
20260506140504 8 293 3.2 8.0 0.00 0.00 0.00 49 1018.5
20260506140003 8 1 3.2 9.7 0.00 0.00 0.00 49 1018.5
20260506135503 7 29 3.2 9.7 0.00 0.00 0.00 49 1018.5
20260506135003 7 13 1.6 8.0 0.00 0.00 0.00 51 1018.4
20260506134713 7 359 3.2 8.0 0.00 0.00 0.00 50 1018.4
20260506134003 7 323 1.6 6.4 0.00 0.00 0.00 51 1018.3
20260506133504 7 301 1.6 6.4 0.00 0.00 0.00 54 1018.2
20260506133003 7 306 1.6 4.8 0.00 0.00 0.00 52 1018.2
20260506132503 7 322 1.6 4.8 0.00 0.00 0.00 54 1018.1
20260506132003 6 324 3.2 8.0 0.00 0.00 0.00 58 1018.0
20260506131503 6 317 1.6 8.0 0.00 0.00 0.00 59 1018.0
20260506131003 6 300 1.6 4.8 0.00 0.00 0.00 58 1018.0
20260506130503 6 300 1.6 4.8 0.00 0.00 0.00 59 1017.8
20260506130214 6 301 1.6 4.8 0.00 0.00 0.00 60 1017.8
20260506125713 6 302 1.6 4.8 0.00 0.00 0.00 60 1017.8
20260506125003 5 299 1.6 4.8 0.00 0.00 0.00 59 1017.8
20260506124503 5 302 1.6 6.4 0.00 0.00 0.00 60 1017.8
20260506124214 5 309 1.6 6.4 0.00 0.00 0.00 59 1017.8
20260506123504 5 326 1.6 4.8 0.00 0.00 0.00 62 1017.7
20260506123003 5 333 1.6 3.2 0.00 0.00 0.00 62 1017.6
20260506122503 4 333 1.6 3.2 0.00 0.00 0.00 63 1017.6
20260506122003 4 334 1.6 4.8 0.00 0.00 0.00 64 1017.3
20260506121503 3 334 0.0 6.4 0.00 0.00 0.00 64 1017.4
20260506121003 3 333 0.0 6.4 0.00 0.00 0.00 67 1017.2
20260506120503 3 334 0.0 1.6 0.00 0.00 0.00 67 1017.1
20260506120003 3 334 0.0 1.6 0.00 0.00 0.00 68 1016.9
20260506115503 3 0 0.0 1.6 0.00 0.00 0.00 68 1017.0
20260506115003 3 334 0.0 1.6 0.00 0.00 0.00 68 1017.0
20260506114503 3 334 0.0 1.6 0.00 0.00 0.00 68 1016.9